Northfield, Minnesota, United States (55057)
Lat: 44.46N, Lon: 93.16W
Wx Zone: MNZ077
Local Info
Past Weather Observations for Today

NOTE: This archive is for the closest National Weather Service station to Northfield. Information may differ from the station used for current weather conditions.

Click here for Long-term Archive

Time Weather Temperature Dewpoint Humidity Pressure Winds Precip Visibility
21:35
Clear
66°F / 19°C 59°F / 15°C 78% 30.04 in
(1017 mb)
SW 4.6 mph
(SW 7 kph)
- 10SM
21:14
Clear
68°F / 20°C 59°F / 15°C 73% 30.01 in
(1016 mb)
Calm - 10SM
20:54
Clear
66°F / 19°C 59°F / 15°C 78% 30.01 in
(1016 mb)
S 3.5 mph
(S 6 kph)
- 10SM
20:35
Clear
68°F / 20°C 61°F / 16°C 78% 30.01 in
(1016 mb)
S 3.5 mph
(S 6 kph)
- 10SM
20:14
Clear
70°F / 21°C 59°F / 15°C 69% 30.01 in
(1016 mb)
S 3.5 mph
(S 6 kph)
- 10SM
19:54
Clear
70°F / 21°C 61°F / 16°C 73% 29.98 in
(1015 mb)
Calm - 10SM
19:34
Clear
73°F / 23°C 59°F / 15°C 61% 29.98 in
(1015 mb)
Calm - 10SM
19:15
Clear
73°F / 23°C 61°F / 16°C 65% 29.98 in
(1015 mb)
Calm - 10SM
18:54
Clear
79°F / 26°C 55°F / 13°C 45% 29.98 in
(1015 mb)
SW 3.5 mph
(SW 6 kph)
- 10SM
18:35
Clear
81°F / 27°C 55°F / 13°C 42% 29.98 in
(1015 mb)
SSW 3.5 mph
(SSW 6 kph)
- 10SM
18:14
Clear
81°F / 27°C 55°F / 13°C 42% 29.98 in
(1015 mb)
W 3.5 mph
(W 6 kph)
- 10SM
17:55
Clear
81°F / 27°C 54°F / 12°C 39% 29.98 in
(1015 mb)
SSW 5.8 mph
(SSW 9 kph)
- 10SM
17:34
Clear
81°F / 27°C 54°F / 12°C 39% 29.98 in
(1015 mb)
SSW 8.1 mph
(SSW 13 kph)
- 10SM
17:14
Clear
82°F / 28°C 54°F / 12°C 37% 29.98 in
(1015 mb)
W 6.9 mph
(W 11 kph)
- 10SM
16:54
Clear
82°F / 28°C 54°F / 12°C 37% 29.98 in
(1015 mb)
SSW 9.2 mph
(SSW 15 kph)
- 10SM
16:34
Clear
82°F / 28°C 55°F / 13°C 40% 29.98 in
(1015 mb)
W 10.4 mph
(W 17 kph)
- 10SM
16:14
Clear
82°F / 28°C 55°F / 13°C 40% 29.98 in
(1015 mb)
SSW 10.4 mph
(SSW 17 kph)
- 10SM
15:54
Clear
82°F / 28°C 55°F / 13°C 40% 29.98 in
(1015 mb)
W 8.1 mph
(W 13 kph)
- 10SM
15:34
Clear
81°F / 27°C 57°F / 14°C 45% 29.98 in
(1015 mb)
SSW 9.2 mph
(SSW 15 kph)
- 10SM
15:14
Clear
81°F / 27°C 57°F / 14°C 45% 29.98 in
(1015 mb)
SSW 9.2 mph
(SSW 15 kph)
- 10SM
14:55
Clear
81°F / 27°C 57°F / 14°C 45% 29.98 in
(1015 mb)
SSW 9.2 mph
(SSW 15 kph)
- 10SM
14:34
Clear
81°F / 27°C 57°F / 14°C 45% 29.98 in
(1015 mb)
SW 10.4 mph
(SW 17 kph)
- 10SM
14:14
Clear
81°F / 27°C 57°F / 14°C 45% 29.98 in
(1015 mb)
SSW 11.5 mph
(SSW 19 kph)
- 10SM
13:54
Clear
81°F / 27°C 55°F / 13°C 42% 29.98 in
(1015 mb)
SSW 10.4 mph
(SSW 17 kph)
- 10SM
13:35
Clear
79°F / 26°C 57°F / 14°C 48% 29.98 in
(1015 mb)
SSW 10.4 mph
(SSW 17 kph)
- 10SM
13:14
Clear
79°F / 26°C 57°F / 14°C 48% 29.98 in
(1015 mb)
SSW 11.5 mph
(SSW 19 kph)
- 10SM
12:55
Clear
79°F / 26°C 61°F / 16°C 54% 29.98 in
(1015 mb)
SSW 10.4 mph
(SSW 17 kph)
- 10SM
12:34
Clear
77°F / 25°C 59°F / 15°C 54% 29.98 in
(1015 mb)
SSW 8.1 mph
(SSW 13 kph)
- 10SM
12:14
Clear
77°F / 25°C 59°F / 15°C 54% 29.98 in
(1015 mb)
SSW 10.4 mph
(SSW 17 kph)
- 10SM
11:54
Clear
77°F / 25°C 59°F / 15°C 54% 29.98 in
(1015 mb)
SSW 9.2 mph
(SSW 15 kph)
- 10SM
11:35
Clear
75°F / 24°C 59°F / 15°C 57% 29.95 in
(1014 mb)
SSW 8.1 mph
(SSW 13 kph)
- 10SM
11:14
Clear
75°F / 24°C 59°F / 15°C 57% 29.95 in
(1014 mb)
SSW 6.9 mph
(SSW 11 kph)
- 10SM
10:54
Clear
75°F / 24°C 59°F / 15°C 57% 29.95 in
(1014 mb)
SW 11.5 mph
(SW 19 kph)
- 10SM
10:34
Clear
73°F / 23°C 59°F / 15°C 61% 29.95 in
(1014 mb)
SW 9.2 mph
(SW 15 kph)
- 10SM
10:15
Clear
73°F / 23°C 59°F / 15°C 61% 29.95 in
(1014 mb)
SW 11.5 mph
(SW 19 kph)
- 10SM
09:54
Clear
72°F / 22°C 57°F / 14°C 61% 29.95 in
(1014 mb)
SW 10.4 mph
(SW 17 kph)
- 10SM
09:34
Clear
70°F / 21°C 57°F / 14°C 64% 29.95 in
(1014 mb)
SW 8.1 mph
(SW 13 kph)
- 10SM
09:15
Clear
70°F / 21°C 57°F / 14°C 64% 29.95 in
(1014 mb)
SW 9.2 mph
(SW 15 kph)
- 10SM
08:54
Clear
68°F / 20°C 59°F / 15°C 73% 29.95 in
(1014 mb)
SSE 4.6 mph
(SSE 7 kph)
- 10SM
08:34
Clear
66°F / 19°C 59°F / 15°C 78% 29.95 in
(1014 mb)
SSE 4.6 mph
(SSE 7 kph)
- 10SM
08:14
Clear
64°F / 18°C 57°F / 14°C 78% 29.95 in
(1014 mb)
SW 5.8 mph
(SW 9 kph)
- 10SM
07:55
Clear
64°F / 18°C 57°F / 14°C 78% 29.95 in
(1014 mb)
SW 5.8 mph
(SW 9 kph)
- 10SM
07:34
Clear
63°F / 17°C 57°F / 14°C 83% 29.95 in
(1014 mb)
SW 5.8 mph
(SW 9 kph)
- 10SM
07:14
Clear
61°F / 16°C 57°F / 14°C 88% 29.95 in
(1014 mb)
SW 5.8 mph
(SW 9 kph)
- 10SM
06:54
Clear
59°F / 15°C 57°F / 14°C 94% 29.92 in
(1013 mb)
SSE 4.6 mph
(SSE 7 kph)
- 10SM
06:34
Clear
59°F / 15°C 55°F / 13°C 88% 29.92 in
(1013 mb)
SW 5.8 mph
(SW 9 kph)
- 7SM
06:14
Partly Cloudy
Fog And Mist
57°F / 14°C 55°F / 13°C 94% 29.92 in
(1013 mb)
S 3.5 mph
(S 6 kph)
- 5SM
05:54
Mostly Cloudy
Fog And Mist
57°F / 14°C 55°F / 13°C 94% 29.92 in
(1013 mb)
S 3.5 mph
(S 6 kph)
- 5SM
05:35
Overcast
Fog And Mist
57°F / 14°C 55°F / 13°C 94% 29.92 in
(1013 mb)
SW 4.6 mph
(SW 7 kph)
- 5SM
05:14
Partly Cloudy
Fog And Mist
55°F / 13°C 54°F / 12°C 94% 29.92 in
(1013 mb)
SW 4.6 mph
(SW 7 kph)
- 4SM
04:54
Partly Cloudy
Fog And Mist
55°F / 13°C 54°F / 12°C 94% 29.89 in
(1012 mb)
Calm - 3SM
04:35
Clear
Fog And Mist
55°F / 13°C 54°F / 12°C 94% 29.89 in
(1012 mb)
Calm - 5SM
04:15
Clear
57°F / 14°C 54°F / 12°C 88% 29.86 in
(1011 mb)
Calm - 7SM
03:54
Clear
57°F / 14°C 54°F / 12°C 88% 29.86 in
(1011 mb)
SW 4.6 mph
(SW 7 kph)
- 7SM
03:34
Partly Cloudy
57°F / 14°C 54°F / 12°C 88% 29.86 in
(1011 mb)
SW 4.6 mph
(SW 7 kph)
- 7SM
03:14
Partly Cloudy
57°F / 14°C 54°F / 12°C 88% 29.86 in
(1011 mb)
SW 4.6 mph
(SW 7 kph)
- 7SM
02:54
Clear
57°F / 14°C 55°F / 13°C 94% 29.86 in
(1011 mb)
SSW 5.8 mph
(SSW 9 kph)
- 7SM
02:34
Clear
57°F / 14°C 55°F / 13°C 94% 29.86 in
(1011 mb)
SSW 5.8 mph
(SSW 9 kph)
- 7SM
02:14
Clear
57°F / 14°C 55°F / 13°C 94% 29.83 in
(1010 mb)
Calm - 7SM
01:54
Clear
57°F / 14°C 55°F / 13°C 94% 29.83 in
(1010 mb)
SSW 3.5 mph
(SSW 6 kph)
- 7SM
01:34
Mostly Cloudy
57°F / 14°C 55°F / 13°C 94% 29.83 in
(1010 mb)
SSW 4.6 mph
(SSW 7 kph)
- 7SM
01:14
Overcast
57°F / 14°C 55°F / 13°C 94% 29.83 in
(1010 mb)
SW 4.6 mph
(SW 7 kph)
- 7SM
00:55
Overcast
57°F / 14°C 55°F / 13°C 94% 29.83 in
(1010 mb)
SW 4.6 mph
(SW 7 kph)
- 7SM
00:34
Overcast
Light Rain
57°F / 14°C 55°F / 13°C 94% 29.83 in
(1010 mb)
SSW 3.5 mph
(SSW 6 kph)
- 7SM
00:14
Overcast
Drizzle
57°F / 14°C 55°F / 13°C 94% 29.83 in
(1010 mb)
SSW 3.5 mph
(SSW 6 kph)
- 10SM
Time Weather Temperature Dewpoint Humidity Pressure Winds Precip Visibility


Weather for websites

WeatherForYou.com, LLC is not responsible for any damages or problems caused by this service. Current weather conditions are obtained from the closest station including government and personal stations which may have varying degrees of accuracy. Weather forecasts are derived from the NOAA NDFD. Like all things, this site belongs to Jesus Christ... He just trusts us to maintain it. If you have any questions or comments email webmaster@weatherforyou.com

Copyright © 2015, WeatherForYou.com LLC. All rights reserved.